Weather History for Keahole Point, HI

Change the Weather History Date:

Monday, November 12, 2012

  Actual Average Record
Temperature  
Mean Temperature 76 °F -  
Max Temperature 82 °F 82 °F 90 °F (1988)
Min Temperature 71 °F 70 °F 65 °F (1993)
Cooling Degree Days 12    
Growing Degree Days 26 (Base 50)    
Moisture  
Dew Point 60 °F    
Average Humidity 56    
Maximum Humidity 68    
Minimum Humidity 42    
Precipitation  
Precipitation 0.00 in - - ()
Sea Level Pressure  
Sea Level Pressure 30.03 in    
Wind  
Wind Speed 6 mph (ESE)    
Max Wind Speed 12 mph    
Max Gust Speed 22 mph    
Visibility 10 miles    
Events      
Averages and records for this station are not official NWS values.
T = Trace of Precipitation, MM = Missing Value Source: NWS Daily Summary

Daily Weather History Graph

Daily Weather History Graph

Search for Another Location

Airport:

Trip Planner

Search our weather history database for the weather conditions in past years. The results will help you decide how hot, cold, wet, or windy it might be!

Date:

Astronomy

Nov. 12, 2012 Rise Set
Actual Time 6:31 AM HST 5:45 PM HST
Civil Twilight 6:08 AM HST 6:08 PM HST
Nautical Twilight 5:41 AM HST 6:34 PM HST
Astronomical Twilight 5:15 AM HST 7:01 PM HST
Moon 5:15 AM HST (11/12) 4:56 PM HST (11/12)
Length of Visible Light 12h 00m
Length of Day
11h 14m
Waning Crescent, 2% of the Moon is Illuminated
Nov 12
Waning Crescent
Nov 13
New
Nov 20
First Quarter
Nov 28
Full
Dec 6
Last Quarter

Hourly Weather History & Observations

Time (HST) Temp. Heat Index Dew Point Humidity Pressure Visibility Wind Dir Wind Speed Gust Speed Precip Events Conditions
12:53 AM 73.0 °F - 62.1 °F 68% 30.03 in 10.0 mi East 4.6 mph - N/A   Clear
1:53 AM 73.0 °F - 61.0 °F 66% 30.03 in 10.0 mi East 8.1 mph - N/A   Clear
2:53 AM 71.1 °F - 59.0 °F 66% 30.01 in 10.0 mi ENE 5.8 mph - N/A   Clear
3:53 AM 72.0 °F - 57.0 °F 59% 30.01 in 10.0 mi ENE 4.6 mph - N/A   Clear
4:53 AM 72.0 °F - 55.9 °F 57% 30.01 in 10.0 mi NNE 3.5 mph - N/A   Clear
5:53 AM 71.1 °F - 57.9 °F 63% 30.02 in 10.0 mi Calm Calm - N/A   Clear
6:53 AM 72.0 °F - 59.0 °F 64% 30.04 in 10.0 mi East 4.6 mph - N/A   Clear
7:53 AM 77.0 °F - 60.1 °F 56% 30.05 in 10.0 mi ESE 4.6 mph - N/A   Clear
8:53 AM 80.1 °F 81.5 °F 63.0 °F 56% 30.05 in 10.0 mi South 9.2 mph - N/A   Clear
9:53 AM 81.0 °F 82.5 °F 64.0 °F 56% 30.07 in 10.0 mi SSW 6.9 mph - N/A   Clear
10:53 AM 82.0 °F 83.4 °F 64.0 °F 54% 30.06 in 10.0 mi SSW 9.2 mph - N/A   Clear
11:53 AM 82.0 °F 83.8 °F 64.9 °F 56% 30.03 in 10.0 mi SSW 9.2 mph - N/A   Partly Cloudy
12:53 PM 82.9 °F 84.6 °F 64.9 °F 54% 30.00 in 10.0 mi SW 10.4 mph - N/A   Scattered Clouds
1:53 PM 82.0 °F 83.8 °F 64.9 °F 56% 29.98 in 10.0 mi WSW 8.1 mph - N/A   Clear
2:53 PM 82.0 °F 83.4 °F 64.0 °F 54% 29.97 in 10.0 mi South 6.9 mph - N/A   Mostly Cloudy
3:53 PM 81.0 °F 81.9 °F 62.1 °F 52% 29.97 in 10.0 mi WSW 5.8 mph - N/A   Overcast
4:53 PM 81.0 °F 81.9 °F 62.1 °F 52% 29.98 in 10.0 mi SSW 9.2 mph - N/A   Scattered Clouds
5:48 PM 82.4 °F 82.0 °F 57.2 °F 42% 29.99 in 10.0 mi East 10.4 mph 21.9 mph N/A   Clear
5:53 PM 81.0 °F 81.7 °F 61.0 °F 50% 30.00 in 10.0 mi SE 11.5 mph 19.6 mph N/A   Clear
6:53 PM 80.1 °F 80.7 °F 59.0 °F 48% 30.03 in 10.0 mi NNE 10.4 mph 20.7 mph N/A   Clear
7:53 PM 77.0 °F - 57.9 °F 52% 30.05 in 10.0 mi NNE 10.4 mph - N/A   Clear
8:53 PM 75.9 °F - 57.0 °F 52% 30.06 in 10.0 mi NNE 5.8 mph - N/A   Clear
9:53 PM 75.9 °F - 57.0 °F 52% 30.07 in 10.0 mi ESE 4.6 mph - N/A   Clear
10:53 PM 73.9 °F - 57.0 °F 55% 30.08 in 10.0 mi NE 4.6 mph - N/A   Partly Cloudy
11:53 PM 73.9 °F - 57.9 °F 57% 30.07 in 10.0 mi North 6.9 mph - N/A   Clear